When you browse on this site, cookies collect data to enhance your experience and personalize the content and advertising you see.
Visit our Privacy Policy to learn more. By continuing to use the site, you agree to this use of cookies and data.
  • In Deutschland
  • Länderverzeichnis
  • Für 7 Tage
  • Wassertemperatur
  • Satellitenkarten
  • Wetterkarte
  • Widgets
  • user-avatar
    Anmelden

    Stündliche Wetter Tibissa

    Heute, 23 März, Samstag

    Zeit Temperatur Niederschläge Wind Luftdruck Luftfeuchtigkeit
    00:00 +5°C° 0.3 mm 3 m/S 685 mmHg 90%
    01:00 +5°C° 0 mm 3 m/S 685 mmHg 90%
    02:00 +6°C° 0 mm 2 m/S 685 mmHg 91%
    03:00 +6°C° 0 mm 2 m/S 684 mmHg 91%
    04:00 +6°C° 0 mm 2 m/S 684 mmHg 92%
    05:00 +6°C° 0 mm 2 m/S 684 mmHg 93%
    06:00 +6°C° 0 mm 2 m/S 685 mmHg 93%
    07:00 +6°C° 0 mm 2 m/S 685 mmHg 93%
    08:00 +6°C° 0 mm 2 m/S 685 mmHg 90%
    09:00 +7°C° 0 mm 3 m/S 686 mmHg 87%
    10:00 +7°C° 0 mm 4 m/S 686 mmHg 83%
    11:00 +7°C° 0.2 mm 4 m/S 686 mmHg 83%
    12:00 +8°C° 0.2 mm 4 m/S 686 mmHg 82%
    13:00 +8°C° 0.2 mm 5 m/S 686 mmHg 82%
    14:00 +8°C° 0.3 mm 5 m/S 686 mmHg 82%
    15:00 +8°C° 0.3 mm 5 m/S 686 mmHg 83%
    16:00 +8°C° 0.3 mm 5 m/S 686 mmHg 84%
    17:00 +8°C° 0.2 mm 5 m/S 686 mmHg 85%
    18:00 +8°C° 0.2 mm 5 m/S 687 mmHg 87%
    19:00 +8°C° 0.2 mm 5 m/S 687 mmHg 88%
    20:00 +7°C° 0 mm 4 m/S 687 mmHg 90%
    21:00 +7°C° 0 mm 3 m/S 688 mmHg 93%
    22:00 +7°C° 0 mm 2 m/S 688 mmHg 95%
    23:00 +6°C° 0 mm 2 m/S 688 mmHg 96%

    Morgen, 24 März, Sonntag

    Zeit Temperatur Niederschläge Wind Luftdruck Luftfeuchtigkeit
    00:00 +7°C° 0 mm 1 m/S 688 mmHg 96%
    01:00 +6°C° 0 mm 1 m/S 688 mmHg 97%
    02:00 +6°C° 0 mm 1 m/S 688 mmHg 97%
    03:00 +6°C° 0 mm 1 m/S 688 mmHg 97%
    04:00 +5°C° 0 mm 1 m/S 688 mmHg 97%
    05:00 +6°C° 0 mm 1 m/S 688 mmHg 97%
    06:00 +6°C° 0 mm 1 m/S 688 mmHg 96%
    07:00 +6°C° 0 mm 1 m/S 688 mmHg 95%
    08:00 +8°C° 0 mm 1 m/S 689 mmHg 84%
    09:00 +9°C° 0 mm 1 m/S 689 mmHg 72%
    10:00 +11°C° 0 mm 1 m/S 690 mmHg 61%
    11:00 +12°C° 0 mm 1 m/S 690 mmHg 55%
    12:00 +14°C° 0 mm 1 m/S 690 mmHg 49%
    13:00 +15°C° 0 mm 1 m/S 690 mmHg 42%
    14:00 +15°C° 0 mm 1 m/S 690 mmHg 40%
    15:00 +16°C° 0 mm 1 m/S 689 mmHg 38%
    16:00 +16°C° 0 mm 1 m/S 689 mmHg 36%
    17:00 +15°C° 0 mm 1 m/S 689 mmHg 40%
    18:00 +15°C° 0 mm 2 m/S 689 mmHg 44%
    19:00 +14°C° 0 mm 2 m/S 689 mmHg 47%
    20:00 +13°C° 0 mm 2 m/S 689 mmHg 51%
    21:00 +13°C° 0 mm 2 m/S 689 mmHg 54%
    22:00 +11°C° 0 mm 3 m/S 689 mmHg 58%
    23:00 +10°C° 0 mm 3 m/S 689 mmHg 60%

    übermorgen, 25 März, Montag

    Zeit Temperatur Niederschläge Wind Luftdruck Luftfeuchtigkeit
    00:00 +10°C° 0 mm 3 m/S 689 mmHg 61%
    01:00 +9°C° 0 mm 3 m/S 688 mmHg 63%
    02:00 +9°C° 0 mm 3 m/S 688 mmHg 64%
    03:00 +9°C° 0 mm 3 m/S 688 mmHg 65%
    04:00 +8°C° 0 mm 3 m/S 687 mmHg 66%
    05:00 +8°C° 0 mm 3 m/S 687 mmHg 67%
    06:00 +8°C° 0 mm 3 m/S 687 mmHg 68%
    07:00 +8°C° 0 mm 3 m/S 687 mmHg 69%
    08:00 +10°C° 0 mm 3 m/S 687 mmHg 62%
    09:00 +12°C° 0 mm 3 m/S 688 mmHg 56%
    10:00 +14°C° 0 mm 3 m/S 688 mmHg 50%
    11:00 +16°C° 0 mm 3 m/S 688 mmHg 46%
    12:00 +17°C° 0 mm 3 m/S 688 mmHg 43%
    13:00 +17°C° 0 mm 3 m/S 688 mmHg 39%
    14:00 +18°C° 0 mm 3 m/S 687 mmHg 38%
    15:00 +18°C° 0 mm 3 m/S 687 mmHg 37%
    16:00 +18°C° 0 mm 3 m/S 686 mmHg 37%
    17:00 +17°C° 0 mm 3 m/S 686 mmHg 42%
    18:00 +16°C° 0 mm 3 m/S 686 mmHg 47%
    19:00 +16°C° 0 mm 2 m/S 686 mmHg 53%
    20:00 +15°C° 0 mm 2 m/S 686 mmHg 59%
    21:00 +13°C° 0 mm 1 m/S 686 mmHg 65%
    22:00 +12°C° 0 mm 1 m/S 686 mmHg 72%
    23:00 +12°C° 0 mm 1 m/S 686 mmHg 72%

    26 März, Dienstag

    Zeit Temperatur Niederschläge Wind Luftdruck Luftfeuchtigkeit
    00:00 +12°C° 0 mm 1 m/S 686 mmHg 72%
    01:00 +11°C° 0 mm 1 m/S 685 mmHg 73%
    02:00 +11°C° 0 mm 1 m/S 685 mmHg 73%
    03:00 +11°C° 0 mm 1 m/S 684 mmHg 73%
    04:00 +11°C° 0 mm 1 m/S 684 mmHg 73%
    05:00 +11°C° 0 mm 1 m/S 684 mmHg 73%
    06:00 +11°C° 0 mm 1 m/S 684 mmHg 73%
    07:00 +11°C° 0 mm 1 m/S 684 mmHg 73%
    08:00 +12°C° 0 mm 1 m/S 685 mmHg 65%
    09:00 +14°C° 0 mm 2 m/S 685 mmHg 58%
    10:00 +16°C° 0 mm 2 m/S 686 mmHg 50%
    11:00 +17°C° 0 mm 2 m/S 686 mmHg 47%
    12:00 +18°C° 0 mm 3 m/S 686 mmHg 45%
    13:00 +19°C° 0 mm 3 m/S 686 mmHg 42%
    14:00 +19°C° 0.6 mm 4 m/S 685 mmHg 45%
    15:00 +18°C° 0.6 mm 4 m/S 685 mmHg 48%
    16:00 +17°C° 0.6 mm 5 m/S 685 mmHg 52%
    17:00 +15°C° 0.7 mm 4 m/S 685 mmHg 61%
    18:00 +14°C° 0.7 mm 4 m/S 684 mmHg 70%
    19:00 +13°C° 0.7 mm 3 m/S 684 mmHg 80%
    20:00 +12°C° 0.2 mm 3 m/S 685 mmHg 82%
    21:00 +12°C° 0.2 mm 3 m/S 685 mmHg 84%
    22:00 +13°C° 0.2 mm 2 m/S 685 mmHg 86%
    23:00 +11°C° 0.3 mm 3 m/S 685 mmHg 87%

    27 März, Mittwoch

    Zeit Temperatur Niederschläge Wind Luftdruck Luftfeuchtigkeit
    00:00 +11°C° 0.3 mm 3 m/S 686 mmHg 89%
    01:00 +11°C° 0.3 mm 3 m/S 686 mmHg 90%
    02:00 +10°C° 0.3 mm 3 m/S 686 mmHg 88%
    03:00 +8°C° 0.3 mm 4 m/S 685 mmHg 87%
    04:00 +8°C° 0.3 mm 4 m/S 685 mmHg 86%
    05:00 +7°C° 0 mm 4 m/S 685 mmHg 85%
    06:00 +7°C° 0 mm 4 m/S 686 mmHg 85%
    07:00 +6°C° 0 mm 4 m/S 686 mmHg 84%
    08:00 +7°C° 0 mm 4 m/S 686 mmHg 78%
    09:00 +8°C° 0 mm 5 m/S 687 mmHg 72%
    10:00 +9°C° 0 mm 5 m/S 687 mmHg 66%
    11:00 +10°C° 0 mm 5 m/S 687 mmHg 59%
    12:00 +10°C° 0 mm 5 m/S 687 mmHg 53%
    13:00 +11°C° 0 mm 6 m/S 687 mmHg 46%
    14:00 +13°C° 0 mm 5 m/S 687 mmHg 46%
    15:00 +13°C° 0 mm 5 m/S 687 mmHg 45%
    16:00 +13°C° 0 mm 5 m/S 686 mmHg 44%
    17:00 +12°C° 0 mm 5 m/S 686 mmHg 51%
    18:00 +11°C° 0 mm 4 m/S 686 mmHg 59%
    19:00 +8°C° 0 mm 4 m/S 686 mmHg 66%
    20:00 +8°C° 0 mm 4 m/S 686 mmHg 70%
    21:00 +8°C° 0 mm 3 m/S 687 mmHg 75%
    22:00 +8°C° 0 mm 2 m/S 687 mmHg 79%
    23:00 +7°C° 0 mm 2 m/S 687 mmHg 81%

    28 März, Donnerstag

    Zeit Temperatur Niederschläge Wind Luftdruck Luftfeuchtigkeit
    00:00 +7°C° 0 mm 3 m/S 687 mmHg 84%
    01:00 +7°C° 0 mm 3 m/S 686 mmHg 86%
    02:00 +6°C° 0 mm 2 m/S 686 mmHg 87%
    03:00 +6°C° 0 mm 2 m/S 686 mmHg 89%
    04:00 +7°C° 0 mm 1 m/S 686 mmHg 90%
    05:00 +7°C° 0 mm 1 m/S 686 mmHg 88%
    06:00 +7°C° 0 mm 1 m/S 686 mmHg 86%
    07:00 +7°C° 0 mm 1 m/S 686 mmHg 84%
    08:00 +8°C° 0 mm 1 m/S 687 mmHg 73%
    09:00 +9°C° 0 mm 2 m/S 687 mmHg 63%
    10:00 +10°C° 0 mm 2 m/S 687 mmHg 53%
    11:00 +13°C° 0 mm 2 m/S 687 mmHg 49%
    12:00 +14°C° 0 mm 2 m/S 687 mmHg 46%
    13:00 +15°C° 0 mm 2 m/S 687 mmHg 42%
    14:00 +16°C° 0 mm 3 m/S 687 mmHg 42%
    15:00 +16°C° 0 mm 3 m/S 687 mmHg 43%
    16:00 +16°C° 0 mm 3 m/S 687 mmHg 43%
    17:00 +14°C° 0 mm 4 m/S 687 mmHg 50%
    18:00 +13°C° 0 mm 4 m/S 687 mmHg 57%
    19:00 +10°C° 0 mm 5 m/S 687 mmHg 64%
    20:00 +11°C° 0 mm 4 m/S 687 mmHg 67%
    21:00 +10°C° 0 mm 3 m/S 688 mmHg 70%
    22:00 +10°C° 0 mm 3 m/S 688 mmHg 74%
    23:00 +9°C° 0 mm 2 m/S 688 mmHg 76%
    Mehr zeigen